Tracking 31027 objects as of 19-Jul-2025
HD Live streaming from Space Station
objects crossing your sky now

CZ-4C R/B

Track CZ-4C R/B now!
10-day predictions
CZ-4C R/B is classified as:


NORAD ID: 39211
Int'l Code: 2013-037D
Perigee: 432.2 km
Apogee: 541.4 km
Inclination: 98.0 °
Period: 94.2 minutes
Semi major axis: 6857 km
RCS: Unknown
Launch date: July 19, 2013
Source: People's Republic of China (PRC)
Launch site: Taiyaun Space Center, China (TSC)

Note: This is a ROCKET BODY
Your satellite tracking list
Your tracking list is empty




NASA's NSSDC Master Catalog

Two Line Element Set (TLE):
1 39211U 13037D   25199.44848047  .00008781  00000-0  28902-3 0  9993
2 39211  97.9791  92.2836 0079598  12.3984 347.9188 15.28702661659744
Source of the keplerian elements: AFSPC